K1TTT Weather Reports


time (UTC)temp
F
wind
direction
speed
knots
gust
knots
rain 1hr
in
rain 24hr
in
rain mn
in
humidity
%
barometer
mb
20260506214036 56 195 6.1 13.9 0.01 0.38 0.38 96 1003.3
20260506213533 56 198 7.0 13.9 0.01 0.38 0.38 96 1003.3
20260506213032 56 179 4.3 18.2 0.01 0.38 0.38 96 1003.2
20260506212525 56 145 7.8 18.2 0.01 0.38 0.38 96 1003.2
20260506212130 56 213 6.1 11.3 0.01 0.38 0.38 96 1003.3
20260506211552 56 132 6.1 10.4 0.01 0.38 0.38 96 1003.2
20260506211049 56 207 4.3 13.0 0.02 0.38 0.38 96 1003.3
20260506210545 56 185 6.1 12.2 0.01 0.37 0.37 96 1003.2
20260506210136 56 180 4.3 15.6 0.01 0.37 0.37 96 1003.3
20260506205616 56 181 5.2 15.6 0.01 0.37 0.37 96 1003.5
20260506205030 56 210 1.7 9.6 0.01 0.37 0.37 96 1003.4
20260506204526 56 187 2.6 13.0 0.02 0.37 0.37 96 1003.5
20260506204136 56 214 7.0 13.0 0.02 0.37 0.37 96 1003.4
20260506203621 56 43 3.5 13.9 0.03 0.37 0.37 96 1003.5
20260506203110 56 185 4.3 11.3 0.04 0.37 0.37 96 1003.4
20260506202549 56 197 4.3 12.2 0.06 0.37 0.37 96 1003.5
20260506202118 56 197 5.2 14.8 0.07 0.37 0.37 96 1003.6
20260506201533 56 195 4.3 14.8 0.09 0.37 0.37 96 1003.7
20260506201028 56 214 3.5 10.4 0.10 0.36 0.36 96 1003.7
20260506200552 56 210 4.3 9.6 0.11 0.36 0.36 96 1003.7
20260506200026 56 209 3.5 9.6 0.12 0.36 0.36 96 1003.7
20260506195614 56 156 3.5 13.9 0.12 0.36 0.36 96 1003.9
20260506195027 56 121 6.1 13.9 0.13 0.36 0.36 96 1003.9
20260506194547 56 210 2.6 10.4 0.12 0.35 0.35 96 1004.0
20260506194050 56 186 5.2 10.4 0.13 0.35 0.35 96 1004.1
20260506193558 56 183 4.3 11.3 0.12 0.34 0.34 96 1004.2
20260506193129 56 207 4.3 11.3 0.11 0.32 0.33 96 1004.1
20260506192540 56 201 3.5 11.3 0.11 0.31 0.31 96 1004.2
20260506192038 56 205 5.2 10.4 0.11 0.30 0.30 95 1004.2
20260506191626 57 158 3.5 17.4 0.10 0.28 0.28 95 1004.2
20260506191038 57 188 7.0 17.4 0.09 0.26 0.26 95 1004.3
20260506190533 57 201 6.1 13.0 0.08 0.25 0.25 95 1004.1
20260506190031 57 165 6.1 17.4 0.08 0.24 0.24 96 1004.4
20260506185553 57 139 3.5 9.6 0.07 0.23 0.23 96 1004.3
20260506185029 57 156 5.2 12.2 0.09 0.23 0.23 95 1004.3
20260506184525 57 151 7.8 11.3 0.12 0.23 0.23 95 1004.4
20260506184114 57 146 5.2 12.2 0.11 0.22 0.22 95 1004.3
20260506183619 57 153 7.0 13.0 0.11 0.22 0.22 95 1004.3
20260506183033 57 190 7.0 13.0 0.10 0.21 0.21 95 1004.4
20260506182526 57 134 4.3 15.6 0.09 0.20 0.20 95 1004.6
20260506182051 57 189 7.8 15.6 0.09 0.19 0.19 95 1004.6
20260506181554 57 159 4.3 15.6 0.08 0.18 0.18 95 1004.6
20260506181102 57 177 4.3 15.6 0.08 0.17 0.17 95 1004.7
20260506180537 57 168 4.3 10.4 0.09 0.17 0.17 95 1004.8
20260506180035 57 175 4.3 9.6 0.09 0.16 0.16 95 1004.8
20260506175603 57 133 5.2 13.9 0.10 0.16 0.16 95 1004.9
20260506175034 57 202 4.3 13.9 0.08 0.13 0.13 95 1004.9
20260506174532 57 169 6.1 9.6 0.07 0.11 0.11 95 1005.0
20260506174029 57 157 5.2 12.2 0.07 0.11 0.11 95 1005.0
20260506173639 57 200 3.5 12.2 0.08 0.11 0.11 95 1005.0
20260506173108 57 176 7.0 10.4 0.09 0.11 0.11 95 1005.2
20260506172548 57 191 4.3 9.6 0.08 0.10 0.10 95 1005.1
20260506172113 57 172 5.2 13.9 0.09 0.10 0.10 95 1005.3
20260506171528 57 160 5.2 9.6 0.08 0.09 0.10 95 1005.4
20260506171051 57 131 7.0 9.6 0.09 0.09 0.09 94 1005.5
20260506170527 57 154 5.2 9.6 0.08 0.08 0.08 94 1005.7
20260506170035 57 153 4.3 9.6 0.07 0.07 0.07 94 1005.9
20260506165603 57 133 4.3 8.7 0.06 0.06 0.06 94 1005.8
20260506165131 57 187 4.3 9.6 0.05 0.05 0.05 93 1005.9
20260506164551 57 162 3.5 9.6 0.04 0.04 0.04 93 1005.8
20260506164042 57 150 2.6 9.6 0.04 0.04 0.04 92 1005.9
20260506163538 57 184 5.2 11.3 0.03 0.03 0.03 92 1005.9
20260506163044 57 181 6.1 11.3 0.02 0.02 0.02 91 1005.9
20260506162612 57 175 3.5 12.2 0.02 0.02 0.02 91 1005.9
20260506162059 57 183 4.3 9.6 0.01 0.01 0.01 90 1006.0
20260506161535 58 198 2.6 7.8 0.01 0.01 0.01 90 1006.0
20260506161105 58 179 4.3 8.7 0.00 0.00 0.00 89 1006.1
20260506160614 58 178 5.2 8.7 0.00 0.00 0.00 88 1006.0
20260506160059 58 168 3.5 8.7 0.00 0.00 0.00 87 1006.1
20260506155529 58 155 4.3 9.6 0.00 0.00 0.00 86 1006.0
20260506155051 59 172 2.6 8.7 0.00 0.00 0.00 86 1006.1
20260506154525 59 195 5.2 9.6 0.00 0.00 0.00 84 1006.0
20260506154049 59 179 3.5 12.2 0.00 0.00 0.00 83 1006.1
20260506153526 60 196 6.1 14.8 0.00 0.00 0.00 82 1006.3
20260506153146 60 184 4.3 14.8 0.00 0.00 0.00 82 1006.2
20260506152607 60 174 5.2 10.4 0.00 0.00 0.00 81 1006.2
20260506152041 60 154 7.0 12.2 0.00 0.00 0.00 81 1006.4
20260506151630 60 209 7.8 15.6 0.00 0.00 0.00 81 1006.5
20260506151044 60 146 4.3 15.6 0.00 0.00 0.00 81 1006.5
20260506150654 60 199 5.2 10.4 0.00 0.00 0.00 81 1006.6
20260506150049 60 132 4.3 12.2 0.00 0.00 0.00 81 1006.8
20260506145551 60 207 5.2 13.9 0.00 0.00 0.00 81 1006.7
20260506145135 60 248 6.1 13.9 0.00 0.00 0.00 80 1006.9
20260506144556 60 204 6.1 12.2 0.00 0.00 0.00 80 1006.6
20260506144031 60 210 4.3 15.6 0.00 0.00 0.00 81 1006.5
20260506143528 60 206 7.0 15.6 0.00 0.00 0.00 80 1006.8
20260506143058 60 223 6.1 13.9 0.00 0.00 0.00 81 1006.8
20260506142531 60 170 5.2 15.6 0.00 0.00 0.00 81 1006.9
20260506142059 60 220 7.8 15.6 0.00 0.00 0.00 81 1006.9
20260506141532 60 164 7.8 25.2 0.00 0.00 0.00 81 1006.8
20260506141054 60 177 10.4 18.2 0.00 0.00 0.00 81 1006.9
20260506140642 60 203 7.8 18.2 0.00 0.00 0.00 81 1006.6
20260506140131 60 172 7.8 20.0 0.00 0.00 0.00 81 1006.4
20260506135543 60 187 7.8 20.0 0.00 0.00 0.00 82 1006.7
20260506135151 60 205 7.8 17.4 0.00 0.00 0.00 82 1006.8
20260506134543 60 166 7.8 19.1 0.00 0.00 0.00 82 1006.6
20260506134039 60 243 9.6 19.1 0.00 0.00 0.00 82 1006.6
20260506133632 60 194 7.0 14.8 0.00 0.00 0.00 83 1006.4
20260506133054 59 247 8.7 16.5 0.00 0.00 0.00 83 1006.3
20260506132529 59 158 7.8 16.5 0.00 0.00 0.00 83 1006.4
20260506132053 59 204 5.2 17.4 0.00 0.00 0.00 83 1006.5
20260506131529 59 185 7.0 17.4 0.00 0.00 0.00 83 1006.4
20260506131114 59 175 3.5 17.4 0.00 0.00 0.00 83 1006.2
20260506130527 59 204 9.6 17.4 0.00 0.00 0.00 83 1006.2
20260506130120 59 179 7.8 18.2 0.00 0.00 0.00 84 1006.5
20260506125605 59 232 7.8 18.2 0.00 0.00 0.00 84 1006.4
20260506125132 59 219 7.0 14.8 0.00 0.00 0.00 84 1006.6
20260506124552 59 174 7.8 14.8 0.00 0.00 0.00 84 1006.7
20260506124055 59 219 5.2 14.8 0.00 0.00 0.00 84 1007.0
20260506123530 58 216 7.0 12.2 0.00 0.00 0.00 84 1006.8
20260506123101 58 202 6.1 13.9 0.00 0.00 0.00 84 1006.8
20260506122534 58 212 7.8 13.9 0.00 0.00 0.00 84 1007.0
20260506122030 58 203 7.0 13.0 0.00 0.00 0.00 85 1007.0
20260506121526 58 152 7.0 15.6 0.00 0.00 0.00 85 1006.9
20260506121116 58 189 7.0 15.6 0.00 0.00 0.00 85 1006.8
20260506120529 58 224 7.8 15.6 0.00 0.00 0.00 85 1006.9
20260506120115 58 206 6.1 18.2 0.00 0.00 0.00 84 1006.7
20260506115602 58 157 7.0 18.2 0.00 0.00 0.00 84 1006.7
20260506115112 58 209 7.0 16.5 0.00 0.00 0.00 84 1006.9
20260506114554 58 189 6.1 16.5 0.00 0.00 0.00 84 1006.6
20260506114102 58 220 6.1 13.9 0.00 0.00 0.00 84 1006.6
20260506113611 57 203 3.5 13.9 0.00 0.00 0.00 84 1006.7
20260506113136 57 196 6.1 13.0 0.00 0.00 0.00 84 1006.6
20260506112549 57 147 5.2 13.0 0.00 0.00 0.00 84 1006.7
20260506112045 57 193 6.1 13.9 0.00 0.00 0.00 84 1006.8
20260506111541 57 162 6.1 13.0 0.00 0.00 0.00 84 1006.6
20260506111110 57 224 2.6 11.3 0.00 0.00 0.00 84 1006.9
20260506110546 57 164 6.1 11.3 0.00 0.00 0.00 84 1006.7
20260506105627 57 166 4.3 8.7 0.00 0.00 0.00 84 1006.8
20260506105042 57 158 4.3 13.0 0.00 0.00 0.00 83 1006.9
20260506104538 57 204 7.0 13.9 0.00 0.00 0.00 83 1006.9
20260506104035 56 195 3.5 11.3 0.00 0.00 0.00 83 1006.9
20260506103531 56 177 6.1 15.6 0.00 0.00 0.00 83 1006.9
20260506103124 56 198 6.1 15.6 0.00 0.00 0.00 83 1006.8
20260506102535 56 216 7.0 14.8 0.00 0.00 0.00 82 1006.7
20260506102030 56 124 3.5 10.4 0.00 0.00 0.00 82 1006.6
20260506101527 56 179 3.5 9.6 0.00 0.00 0.00 82 1006.9
20260506101025 56 166 4.3 12.2 0.00 0.00 0.00 81 1006.7
20260506100631 56 203 4.3 12.2 0.00 0.00 0.00 81 1006.7
20260506100046 56 195 4.3 11.3 0.00 0.00 0.00 80 1006.4
20260506095541 57 174 4.3 10.4 0.00 0.00 0.00 80 1006.5
20260506095130 57 162 5.2 10.4 0.00 0.00 0.00 79 1006.5
20260506094542 57 171 2.6 9.6 0.00 0.00 0.00 79 1006.6
20260506094112 57 168 3.5 9.6 0.00 0.00 0.00 78 1006.4
20260506093546 58 169 4.3 8.7 0.00 0.00 0.00 77 1006.5
20260506093113 58 173 2.6 7.8 0.00 0.00 0.00 77 1006.4
20260506092619 58 213 4.3 7.0 0.00 0.00 0.00 76 1006.5
20260506092107 58 211 3.5 7.8 0.00 0.00 0.00 76 1006.5
20260506091550 58 160 3.5 7.8 0.00 0.00 0.00 76 1006.5
20260506091047 58 147 3.5 8.7 0.00 0.00 0.00 75 1006.6
20260506090550 58 197 2.6 10.4 0.00 0.00 0.00 75 1006.7
20260506090048 59 204 3.5 10.4 0.00 0.00 0.00 74 1006.6
20260506085539 59 206 3.5 9.6 0.00 0.00 0.00 74 1006.7
20260506085034 59 211 3.5 9.6 0.00 0.00 0.00 73 1006.6
20260506084602 59 165 4.3 7.8 0.00 0.00 0.00 72 1006.7
20260506084114 59 189 2.6 9.6 0.00 0.00 0.00 72 1006.8
20260506083557 60 214 4.3 9.6 0.00 0.00 0.00 71 1006.7
20260506083155 60 180 3.5 8.7 0.00 0.00 0.00 71 1006.7
20260506082545 60 226 4.3 6.1 0.00 0.00 0.00 70 1006.9
20260506082045 60 174 3.5 9.6 0.00 0.00 0.00 70 1006.9
20260506081635 60 194 4.3 9.6 0.00 0.00 0.00 70 1006.8
20260506081102 60 193 4.3 10.4 0.00 0.00 0.00 70 1006.8
20260506080536 60 203 6.1 10.4 0.00 0.00 0.00 70 1006.8
20260506080127 60 229 2.6 8.7 0.00 0.00 0.00 70 1006.8
20260506073131 60 233 5.2 9.6 0.00 0.00 0.00 71 1006.9
20260506072542 60 288 3.5 9.6 0.00 0.00 0.00 70 1006.9
20260506072107 60 191 4.3 9.6 0.00 0.00 0.00 71 1007.0
20260506071541 60 226 3.5 8.7 0.00 0.00 0.00 71 1007.1
20260506071129 60 219 4.3 8.7 0.00 0.00 0.00 70 1007.1
20260506070542 60 237 5.2 7.8 0.00 0.00 0.00 70 1007.2
20260506062033 61 195 4.3 8.7 0.00 0.00 0.00 67 1007.1
20260506061603 61 231 4.3 8.7 0.00 0.00 0.00 67 1007.2
20260506061131 61 166 4.3 8.7 0.00 0.00 0.00 66 1007.2
20260506060549 61 197 5.2 8.7 0.00 0.00 0.00 66 1007.1
20260506051050 63 235 5.2 13.0 0.00 0.00 0.00 60 1007.4
20260506050558 63 204 5.2 13.0 0.00 0.00 0.00 60 1007.4
20260506045053 63 202 6.1 12.2 0.00 0.00 0.00 60 1007.3
20260506044556 63 141 3.5 9.6 0.00 0.00 0.00 60 1007.3
20260506044125 63 189 4.3 9.6 0.00 0.00 0.00 59 1007.5
20260506043539 63 168 5.2 12.2 0.00 0.00 0.00 59 1007.4
20260506043127 64 200 4.3 12.2 0.00 0.00 0.00 59 1007.5
20260506042539 64 207 3.5 10.4 0.00 0.00 0.00 58 1007.4
20260506042130 64 206 4.3 10.4 0.00 0.00 0.00 58 1007.3
20260506041544 64 212 4.3 10.4 0.00 0.00 0.00 58 1007.3
20260506041040 64 179 4.3 13.0 0.00 0.00 0.00 58 1007.3
20260506040610 64 205 2.6 13.0 0.00 0.00 0.00 58 1007.3
20260506040048 64 150 5.2 13.0 0.00 0.00 0.00 57 1007.3
20260506035542 64 215 5.2 8.7 0.00 0.00 0.00 57 1007.3
20260506035036 64 144 5.2 13.9 0.00 0.00 0.00 57 1007.3
20260506034624 64 209 4.3 13.9 0.00 0.00 0.00 57 1007.4
20260506034109 64 152 4.3 10.4 0.00 0.00 0.00 58 1007.3
20260506033552 64 218 5.2 10.4 0.00 0.00 0.00 57 1007.4
20260506033050 64 152 3.5 8.7 0.00 0.00 0.00 57 1007.4
20260506032617 64 177 3.5 10.4 0.00 0.00 0.00 57 1007.3
20260506032031 64 159 5.2 10.4 0.00 0.00 0.00 57 1007.3
20260506031527 64 165 4.3 11.3 0.00 0.00 0.00 58 1007.4
20260506031114 64 172 4.3 13.0 0.00 0.00 0.00 59 1007.3
20260506030556 64 143 4.3 9.6 0.00 0.00 0.00 59 1007.4
20260506030041 64 162 3.5 6.1 0.00 0.00 0.00 60 1007.4
20260506025533 64 144 2.6 7.8 0.00 0.00 0.00 60 1007.3
20260506025104 64 135 3.5 8.7 0.00 0.00 0.00 60 1007.5
20260506024613 64 138 3.5 8.7 0.00 0.00 0.00 60 1007.5
20260506024046 64 156 4.3 7.8 0.00 0.00 0.00 60 1007.6
20260506023543 64 135 3.5 7.8 0.00 0.00 0.00 61 1007.6
20260506023147 64 150 4.3 7.0 0.00 0.00 0.00 61 1007.6
20260506022539 64 142 3.5 8.7 0.00 0.00 0.00 62 1007.6
20260506022035 64 139 5.2 8.7 0.00 0.00 0.00 62 1007.6
20260506021626 64 149 2.6 7.0 0.00 0.00 0.00 63 1007.7
20260506021132 63 152 3.5 7.8 0.00 0.00 0.00 64 1007.6
20260506020614 63 170 4.3 7.8 0.00 0.00 0.00 64 1007.6
20260506015630 63 158 2.6 7.0 0.00 0.00 0.00 66 1007.7
20260506015051 63 154 2.6 7.0 0.00 0.00 0.00 66 1007.7
20260506014525 63 158 1.7 5.2 0.00 0.00 0.00 67 1007.5
20260506014114 62 117 2.6 5.2 0.00 0.00 0.00 68 1007.6
20260506013618 62 147 1.7 5.2 0.00 0.00 0.00 68 1007.5
20260506013032 62 147 0.9 3.5 0.00 0.00 0.00 69 1007.5
20260506012555 62 127 0.9 2.6 0.00 0.00 0.00 69 1007.5
20260506012032 62 133 1.7 2.6 0.00 0.00 0.00 69 1007.5
20260506011641 62 131 0.9 1.7 0.00 0.00 0.00 69 1007.6
20260506011034 62 131 0.0 1.7 0.00 0.00 0.00 69 1007.4
20260506010531 62 131 0.9 1.7 0.00 0.00 0.00 68 1007.4
20260506010052 62 131 0.9 2.6 0.00 0.00 0.00 68 1007.4
20260506005554 63 129 0.9 3.5 0.00 0.00 0.00 68 1007.2
20260506005028 63 121 1.7 4.3 0.00 0.00 0.00 68 1007.2
20260506004552 62 120 2.6 3.5 0.00 0.00 0.00 69 1007.4
20260506004046 63 119 1.7 4.3 0.00 0.00 0.00 69 1007.2
20260506003541 63 299 0.9 1.7 0.00 0.00 0.00 69 1007.2
20260506003038 63 299 0.0 0.9 0.00 0.00 0.00 68 1007.1
20260506002605 63 299 0.0 0.9 0.00 0.00 0.00 68 1007.1
20260506002113 63 299 0.0 0.9 0.00 0.00 0.00 68 1007.1
20260506001544 63 299 0.0 0.9 0.00 0.00 0.00 68 1006.9
20260506001040 63 299 0.9 0.9 0.00 0.00 0.00 68 1006.9
20260506000611 63 299 0.0 0.0 0.00 0.00 0.00 68 1006.7
20260506000047 63 299 0.0 1.7 0.00 0.00 0.00 68 1006.7
20260505235546 63 299 0.0 2.6 0.00 0.00 0.00 68 1006.7
20260505235050 64 299 1.7 2.6 0.00 0.00 0.00 67 1006.8
20260505234547 64 312 1.7 4.3 0.00 0.00 0.00 67 1006.6
20260505234114 64 307 1.7 4.3 0.00 0.00 0.00 66 1006.5
20260505233545 64 286 1.7 7.8 0.00 0.00 0.00 64 1006.4
20260505233042 65 280 2.6 8.7 0.00 0.00 0.00 63 1006.3
20260505232611 65 308 2.6 9.6 0.00 0.00 0.00 62 1006.3
20260505232025 65 326 5.2 18.2 0.00 0.00 0.00 61 1006.2
20260505231550 66 288 4.3 18.2 0.00 0.00 0.00 59 1006.1
20260505231053 68 326 7.0 13.0 0.00 0.00 0.00 55 1006.0
20260505230556 70 237 7.0 13.0 0.00 0.00 0.00 48 1005.8
20260505230032 71 232 5.2 13.0 0.00 0.00 0.00 46 1005.5
20260505225551 71 147 9.6 13.0 0.00 0.00 0.00 46 1005.5
20260505225121 71 247 7.0 12.2 0.00 0.00 0.00 46 1005.3
20260505224536 71 178 7.0 14.8 0.00 0.00 0.00 45 1005.3
20260505224032 72 256 5.2 13.9 0.00 0.00 0.00 45 1005.1
20260505223620 72 218 7.0 13.0 0.00 0.00 0.00 44 1005.1
20260505223035 72 171 4.3 16.5 0.00 0.00 0.00 44 1005.1
20260505222530 72 216 8.7 16.5 0.00 0.00 0.00 43 1004.9
20260505222055 72 224 7.0 16.5 0.00 0.00 0.00 42 1004.9
20260505221527 72 172 4.3 14.8 0.00 0.00 0.00 42 1005.0
20260505221051 73 184 8.7 14.8 0.00 0.00 0.00 41 1004.8
20260505220554 73 238 7.8 16.5 0.00 0.00 0.00 39 1004.8
20260505220031 73 251 7.8 16.5 0.00 0.00 0.00 38 1004.9
20260505215555 73 216 7.0 18.2 0.00 0.00 0.00 37 1004.9
20260505215031 73 225 8.7 18.2 0.00 0.00 0.00 36 1004.8
20260505214601 73 196 7.0 18.2 0.00 0.00 0.00 37 1004.9